Preview of NWS' New Version of Forecast
This preview is not operational and should not be used for support decisions.

Regional Weather Roundup (RWR)

Issued by National Weather Service (NWS)

                            
000
ASUS43 KMKX 200221
RWRWI 

WISCONSIN REGIONAL WEATHER ROUNDUP
NATIONAL WEATHER SERVICE MILWAUKEE/SULLIVAN WI
900 PM CDT MON AUG 19 2019

NOTE: "FAIR" INDICATES FEW OR NO CLOUDS BELOW 12,000 FEET WITH NO
SIGNIFICANT WEATHER AND/OR OBSTRUCTIONS TO VISIBILITY.

WIZ001-002-006>008-014>016-023>028-200300-
NORTHWEST WISCONSIN
  
CITY           SKY/WX    TMP DP  RH WIND       PRES   REMARKS
SUPERIOR ARPT  FAIR      66  57  73 CALM      29.94R                  
ASHLAND        FAIR      65  57  75 S8        29.96R                  
HAYWARD        FAIR      63  56  78 S7        29.99R                  
SIREN          FAIR      68  57  67 SE5       29.98S                  
CUMBERLAND     FAIR      63  55  77 S5        30.01R                  
RICE LAKE      FAIR      64  49  57 CALM      30.02R                  
CHETEK         NOT AVBL                                               
LADYSMITH      FAIR      62  58  86 CALM      30.04R                  
EAU CLAIRE     FAIR      66  57  72 CALM      29.99R                  
MENOMONIE      FAIR      61  56  82 CALM      30.01R                  
NEW RICHMOND   FAIR      66  59  76 SE3       30.00R                  
OSCEOLA        FAIR      66  61  82 SE5       30.01R                  
$$
 
WIZ003>005-009-010-017-018-200300-
NORTH CENTRAL WISCONSIN
  
CITY           SKY/WX    TMP DP  RH WIND       PRES   REMARKS
MANITOWISH WTR FAIR      61  54  79 SW5       30.01S                  
ARBOR VITAE    FAIR      62  56  80 CALM      30.01R                  
WOODRUFF       FAIR      62  56  80 CALM      30.01R                  
RHINELANDER    FAIR      57  52  83 CALM      30.03R                  
EAGLE RIVER    FAIR      58  53  82 CALM      30.01R                  
LAND O LAKES   FAIR      56  53  87 CALM      30.02R                  
PHILLIPS       NOT AVBL                                               
TOMAHAWK       FAIR      56  54  92 CALM      30.03R                  
MEDFORD        FAIR      56  55  95 CALM      30.03R                  
MERRILL        NOT AVBL                                               
$$
 
WIZ029-030-035-036-043>047-200300-
CENTRAL WISCONSIN
  
CITY           SKY/WX    TMP DP  RH WIND       PRES   REMARKS
WAUSAU         FAIR      64  56  75 CALM      30.01R                  
MOSINEE        CLEAR     63  54  72 CALM      30.03R                  
MARSHFIELD     FAIR      63  57  81 CALM      30.02R                  
STEVENS POINT  NOT AVBL                                               
WAUPACA        FAIR      64  60  87 CALM      30.02S                  
WAUTOMA        FAIR      63  62  97 CALM      30.02R                  
WISC RAPIDS    FAIR      61  58  90 CALM      30.02R                  
CAMP DOUGLAS   PTCLDY    61  61 100 CALM      30.02R                  
$$
 
WIZ011>013-019>022-031-037>040-048>050-200300-
NORTHEAST WISCONSIN
  
CITY           SKY/WX    TMP DP  RH WIND       PRES   REMARKS
ANTIGO         FAIR      57  55  94 CALM      30.04R                  
SHAWANO        FAIR      61  58  90 CALM      30.00S                  
OCONTO         FAIR      61  59  92 CALM      30.00R                  
STURGEON BAY   FAIR      64  61  90 S6        30.01S                  
GREEN BAY      FAIR      66  61  84 CALM      30.01R                  
MANITOWOC      FAIR      63  61  93 CALM      30.02S                  
APPLETON       PTCLDY    70  50  49 VRB5      30.01R                  
CLINTONVILLE   NOT AVBL                                               
OSHKOSH        FAIR      66  59  78 CALM      30.01R                  
$$
 
WIZ032>034-041-042-053>061-200300-
SOUTHWEST WISCONSIN
  
CITY           SKY/WX    TMP DP  RH WIND       PRES   REMARKS
LA CROSSE      FAIR      70  60  70 E3        30.00R                  
SPARTA         FAIR      58  56  93 CALM      30.03R                  
VIROQUA        FAIR      70  61  73 S5        30.04R                  
BOSCOBEL       FAIR      66  63  90 CALM      30.01R                  
PRAIRIE DU CHI FAIR      67  63  85 CALM      30.00R                  
PLATTEVILLE    FAIR      71  65  80 CALM      30.03R                  
$$

WIZ056-057-062-063-064-067-068-200300-
SOUTH CENTRAL WISCONSIN
  
CITY           SKY/WX    TMP DP  RH WIND       PRES   REMARKS
REEDSBURG      FAIR      66  64  92 CALM      30.02R                  
BARABOO/DELLS  FAIR      65  61  87 CALM      30.02S                  
LONE ROCK      FAIR      66  64  93 CALM      30.01R                  
MINERAL POINT  FAIR     N/A N/A N/A CALM      30.03R                  
MADISON        FAIR      68  62  81 CALM      30.01R                  
MIDDLETON      FAIR      68  22  17 CALM      30.02S                  
WATERTOWN      FAIR      68  65  88 CALM      30.01S                  
MONROE         FAIR      76  64  66 CALM      30.02S                  
JANESVILLE     FAIR      70  70 100 CALM      30.01R                  
$$
 
WIZ051-052-058>065-066-070>072-200300-
SOUTHEAST WISCONSIN
  
CITY           SKY/WX    TMP DP  RH WIND       PRES   REMARKS
MILWAUKEE      FAIR      73  68  84 S5        30.00S                  
WAUKESHA       CLEAR     70  63  78 NW5       30.02R                  
MILWAUKEE/TIMM FAIR      70  63  78 CALM      30.02R                  
RACINE         FAIR      74  68  81 SE3       30.02S                  
KENOSHA        FAIR      73  69  87 CALM      30.01S                  
FOND DU LAC    FAIR      66  60  81 CALM      30.02R                  
SHEBOYGAN      FAIR      63  61  93 CALM      30.02R                  
WEST BEND      FAIR      66  64  94 CALM      30.03R                  
JUNEAU         NOT AVBL                                               
$$

LSZ147-162-200300-
LAKE SUPERIOR
  
STATION/POSITION TIME  TEMP    WIND        PRES    WAVE
                       AIR SEA DIR/SP/G            HT/PER
                 (UTC) (F)     (DEG/KT/KT) (MB)    (FT/S)
W MID LAKE BUOY  0150   67 63  220/ 14/ 17 1011.7R   2/ 4
DEVILS ISLAND    0200   71     210/ 10/ 12 1012.9R
SAXON HARBOR     0140   71     190/  6/ 10 1013.2R
$$
 
LMZ867-665-643>646-200300-
LAKE MICHIGAN
  
STATION/POSITION TIME  TEMP    WIND        PRES    WAVE
                       AIR SEA DIR/SP/G            HT/PER
                 (UTC) (F)     (DEG/KT/KT) (MB)    (FT/S)
S GREEN BAY BUOY 0000   78 72  200/  6/  6 1016.0R
N MID LAKE BUOY  0200   70 70  200/ 10/ 12 1016.1
NORTHPORT PIER   0140   66     150/  1/  4 1015.6R
KEWAUNEE LAKESHO 0136   68      CALM  /  3 1015.6R
SHEBOYGAN LAKESH 0200   71     200/  4/  4 1016.4R
PORT WASHINGTON  0140   72      CALM  /  1 1016.9R
S MID LAKE BUOY  0200   74 75   60/  6/  6 1016.4
KENOSHA   LAKESH 0200   74     140/  1/  2 1015.6
$$

TC  - TEMPERATURE IN CELSIUS
VSB - VISIBILITY IN STATUTE MILES
WCI - WIND CHILL INDEX
HX  - HEAT INDEX